Sitka, AK

3:02 AM AKDT on March 24, 2017 (GMT -0800)
Sitka Rocky Gutierrez

Weather History for PASI - July, 2014

Change the Weather History Date:

Sunday, July 20, 2014

  Actual Average Record
Temperature  
Mean Temperature 55 °F -  
Max Temperature 57 °F 61 °F 70 °F (1976)
Min Temperature 52 °F 51 °F 44 °F (1954)
Degree Days  
Heating Degree Days 10    
Growing Degree Days 5 (Base 50)    
Moisture  
Dew Point 52 °F    
Average Humidity 89    
Maximum Humidity 94    
Minimum Humidity 77    
Precipitation  
Precipitation 0.31 in - - ()
Sea Level Pressure  
Sea Level Pressure 29.87 in    
Wind  
Wind Speed 4 mph (SSE)    
Max Wind Speed 13 mph    
Max Gust Speed -    
Visibility 8 miles    
Events Rain    
Averages and records for this station are not official NWS values.
T = Trace of Precipitation, MM = Missing Value Source: NWS Daily Summary

Daily Weather History Graph

Daily Weather History Graph

Search for Another Location

Airport or City:

Trip Planner

Search our weather history database for the weather conditions in past years. The results will help you decide how hot, cold, wet, or windy it might be!

Date:

Astronomy

Jul. 20, 2014 Rise Set
Actual Time 4:37 AM AKDT 9:36 PM AKDT
Civil Twilight 3:40 AM AKDT 10:33 PM AKDT
Nautical Twilight 1:41 AM AKDT 12:26 AM AKDT
Astronomical Twilight Sun does not rise Sun does not rise
Moon 12:22 AM AKDT (7/20) 4:07 PM AKDT (7/20)
Length of Visible Light 18h 52m
Length of Day
16h 58m
Waning Crescent, 32% of the Moon is Illuminated
Jul 20
Waning Crescent
Jul 26
New
Aug 3
First Quarter
Aug 10
Full
Aug 17
Last Quarter

Hourly Weather History & Observations

Time (AKDT) Temp. Dew Point Humidity Pressure Visibility Wind Dir Wind Speed Gust Speed Precip Events Conditions
12:07 AM 55.0 °F 52.0 °F 89% 29.91 in 10.0 mi East 3.5 mph - N/A   Mostly Cloudy
12:23 AM 54.0 °F 52.0 °F 93% 29.91 in 10.0 mi East 3.5 mph - N/A   Scattered Clouds
12:53 AM 54.0 °F 52.0 °F 93% 29.92 in 10.0 mi East 3.5 mph - N/A   Overcast
1:30 AM 55.0 °F 52.0 °F 89% 29.92 in 10.0 mi Calm Calm - N/A   Mostly Cloudy
1:53 AM 55.9 °F 54.0 °F 93% 29.91 in 9.0 mi Calm Calm - N/A   Mostly Cloudy
1:56 AM 55.9 °F 54.0 °F 93% 29.91 in 9.0 mi Calm Calm - N/A   Overcast
2:06 AM 55.0 °F 52.0 °F 89% 29.91 in 9.0 mi ENE 3.5 mph - N/A   Overcast
2:16 AM 55.0 °F 52.0 °F 89% 29.91 in 10.0 mi Calm Calm - N/A   Mostly Cloudy
2:31 AM 55.0 °F 53.1 °F 93% 29.91 in 9.0 mi Calm Calm - N/A   Mostly Cloudy
2:39 AM 55.0 °F 53.1 °F 93% 29.91 in 9.0 mi Calm Calm - N/A   Mostly Cloudy
2:53 AM 55.0 °F 53.1 °F 93% 29.91 in 9.0 mi Calm Calm - N/A   Mostly Cloudy
3:03 AM 55.9 °F 53.1 °F 90% 29.91 in 9.0 mi Calm Calm - N/A   Overcast
3:14 AM 55.9 °F 52.0 °F 87% 29.91 in 10.0 mi Variable 3.5 mph - N/A   Overcast
3:51 AM 55.4 °F 53.6 °F 94% 29.91 in 9.0 mi Calm Calm - N/A   Overcast
3:53 AM 55.9 °F 53.1 °F 90% 29.91 in 9.0 mi South 3.5 mph - N/A   Overcast
4:22 AM 55.9 °F 53.1 °F 90% 29.91 in 9.0 mi SSW 5.8 mph - N/A   Overcast
4:53 AM 55.9 °F 52.0 °F 87% 29.91 in 9.0 mi South 4.6 mph - N/A   Overcast
5:53 AM 55.9 °F 52.0 °F 87% 29.90 in 8.0 mi South 5.8 mph - 0.00 in   Overcast
6:53 AM 55.9 °F 52.0 °F 87% 29.89 in 8.0 mi ESE 4.6 mph - N/A   Overcast
7:04 AM 55.9 °F 52.0 °F 87% 29.89 in 8.0 mi South 3.5 mph - N/A   Overcast
7:42 AM 55.9 °F 52.0 °F 87% 29.89 in 9.0 mi South 4.6 mph - 0.00 in   Overcast
7:49 AM 55.4 °F 51.8 °F 88% 29.89 in 9.0 mi SE 4.6 mph - 0.00 in   Overcast
7:53 AM 55.9 °F 52.0 °F 87% 29.89 in 9.0 mi SE 3.5 mph - 0.00 in   Overcast
8:11 AM 55.9 °F 53.1 °F 90% 29.89 in 10.0 mi ESE 3.5 mph - N/A   Overcast
8:53 AM 57.0 °F 51.1 °F 81% 29.89 in 9.0 mi SSE 3.5 mph - N/A   Overcast
9:53 AM 55.9 °F 51.1 °F 84% 29.88 in 6.0 mi SSE 6.9 mph - 0.01 in Rain Light Rain
10:11 AM 55.9 °F 52.0 °F 87% 29.88 in 7.0 mi South 9.2 mph - 0.00 in Rain Light Rain
10:42 AM 57.0 °F 52.0 °F 83% 29.88 in 8.0 mi South 6.9 mph - 0.00 in   Overcast
10:53 AM 57.0 °F 52.0 °F 83% 29.88 in 8.0 mi South 5.8 mph - 0.00 in   Overcast
11:53 AM 57.0 °F 50.0 °F 77% 29.87 in 10.0 mi SE 5.8 mph - N/A   Overcast
12:17 PM 57.0 °F 51.1 °F 81% 29.87 in 7.0 mi SSE 3.5 mph - 0.00 in Rain Light Rain
12:53 PM 55.0 °F 52.0 °F 89% 29.87 in 5.0 mi South 10.4 mph - 0.01 in Rain Light Rain
1:53 PM 55.0 °F 52.0 °F 89% 29.86 in 10.0 mi SSW 12.7 mph - 0.00 in   Overcast
2:19 PM 55.0 °F 52.0 °F 89% 29.86 in 4.0 mi South 9.2 mph - 0.00 in Rain Light Rain
2:53 PM 55.0 °F 52.0 °F 89% 29.85 in 10.0 mi South 11.5 mph - 0.01 in   Overcast
3:42 PM 55.0 °F 52.0 °F 89% 29.84 in 2.0 mi South 8.1 mph - 0.01 in Rain Light Rain
3:53 PM 55.0 °F 52.0 °F 89% 29.84 in 2.0 mi South 6.9 mph - 0.04 in Rain Light Rain
4:08 PM 55.0 °F 53.1 °F 93% 29.84 in 4.0 mi East 4.6 mph - 0.02 in Rain Light Rain
4:53 PM 55.9 °F 54.0 °F 93% 29.83 in 9.0 mi East 5.8 mph - 0.03 in   Overcast
5:53 PM 55.9 °F 52.0 °F 87% 29.81 in 10.0 mi ESE 5.8 mph - N/A   Overcast
6:53 PM 55.0 °F 53.1 °F 93% 29.81 in 3.0 mi SSE 5.8 mph - 0.07 in Rain Rain
7:12 PM 54.0 °F 52.0 °F 93% 29.80 in 5.0 mi SSE 9.2 mph - 0.04 in Rain Light Rain
7:53 PM 55.0 °F 52.0 °F 89% 29.80 in 9.0 mi Calm Calm - 0.07 in Rain Light Rain
8:53 PM 54.0 °F 52.0 °F 93% 29.80 in 7.0 mi SSW 6.9 mph - 0.04 in Rain Light Rain
9:04 PM 54.0 °F 52.0 °F 93% 29.79 in 8.0 mi SSW 9.2 mph - 0.00 in Rain Light Rain
9:53 PM 53.1 °F 50.0 °F 89% 29.79 in 10.0 mi SSW 6.9 mph - 0.02 in   Overcast
10:00 PM 54.0 °F 50.0 °F 86% 29.79 in 10.0 mi Variable 3.5 mph - 0.00 in Rain Light Rain
10:53 PM 53.1 °F 51.1 °F 93% 29.78 in 10.0 mi NNE 3.5 mph - 0.01 in   Overcast
11:53 PM 52.0 °F 50.0 °F 93% 29.79 in 10.0 mi Calm Calm - 0.00 in   Overcast